Year,Month,Day,Hour,Minute,Value (Times are PST for windgust in km/hr)
2022,05,17,00,00,6.40
2022,05,17,00,01,6.40
2022,05,17,00,02,6.40
2022,05,17,00,03,6.40
2022,05,17,00,04,6.40
2022,05,17,00,05,6.40
2022,05,17,00,06,6.40
2022,05,17,00,07,4.80
2022,05,17,00,08,4.80
2022,05,17,00,09,4.80
2022,05,17,00,10,4.80
2022,05,17,00,11,4.80
2022,05,17,00,12,3.20
2022,05,17,00,13,4.80
2022,05,17,00,14,4.80
2022,05,17,00,15,6.40
2022,05,17,00,16,6.40
2022,05,17,00,17,4.80
2022,05,17,00,18,4.80
2022,05,17,00,19,4.80
2022,05,17,00,20,3.20
2022,05,17,00,21,3.20
2022,05,17,00,22,4.80
2022,05,17,00,23,3.20
2022,05,17,00,24,3.20
2022,05,17,00,25,3.20
2022,05,17,00,26,4.80
2022,05,17,00,27,3.20
2022,05,17,00,28,3.20
2022,05,17,00,29,3.20
2022,05,17,00,30,1.60
2022,05,17,00,31,1.60
2022,05,17,00,47,1.60
2022,05,17,00,48,4.80
2022,05,17,00,49,8.10
2022,05,17,00,50,6.40
2022,05,17,00,51,4.80
2022,05,17,00,52,4.80
2022,05,17,00,53,4.80
2022,05,17,00,54,4.80
2022,05,17,00,55,4.80
2022,05,17,00,56,4.80
2022,05,17,00,57,3.20
2022,05,17,00,58,1.60
2022,05,17,01,03,1.60
2022,05,17,01,04,3.20
2022,05,17,01,05,3.20
2022,05,17,01,06,1.60
2022,05,17,01,07,1.60
2022,05,17,01,09,1.60
2022,05,17,01,10,1.60
2022,05,17,01,11,3.20
2022,05,17,01,12,3.20
2022,05,17,01,13,3.20
2022,05,17,01,14,1.60
2022,05,17,01,18,1.60
2022,05,17,01,23,3.20
2022,05,17,01,24,6.40
2022,05,17,01,25,8.10
2022,05,17,01,26,8.10
2022,05,17,01,27,3.20
2022,05,17,01,28,3.20
2022,05,17,01,29,3.20
2022,05,17,01,30,3.20
2022,05,17,01,31,3.20
2022,05,17,01,32,3.20
2022,05,17,01,33,1.60
2022,05,17,01,34,3.20
2022,05,17,01,35,1.60
2022,05,17,01,36,1.60
2022,05,17,01,38,1.60
2022,05,17,01,39,1.60
2022,05,17,01,40,3.20
2022,05,17,01,41,3.20
2022,05,17,01,42,1.60
2022,05,17,01,43,1.60
2022,05,17,01,44,1.60
2022,05,17,01,46,1.60
2022,05,17,01,47,1.60
2022,05,17,01,48,1.60
2022,05,17,01,50,1.60
2022,05,17,01,51,3.20
2022,05,17,01,52,3.20
2022,05,17,01,53,1.60
2022,05,17,01,54,1.60
2022,05,17,01,55,1.60
2022,05,17,01,56,1.60
2022,05,17,02,00,1.60
2022,05,17,02,02,1.60
2022,05,17,02,03,3.20
2022,05,17,02,04,3.20
2022,05,17,02,05,3.20
2022,05,17,02,06,3.20
2022,05,17,02,07,3.20
2022,05,17,02,08,1.60
2022,05,17,02,10,1.60
2022,05,17,02,11,3.20
2022,05,17,02,12,4.80
2022,05,17,02,13,3.20
2022,05,17,02,14,3.20
2022,05,17,02,15,3.20
2022,05,17,02,16,3.20
2022,05,17,02,17,3.20
2022,05,17,02,18,1.60
2022,05,17,02,19,1.60
2022,05,17,02,20,3.20
2022,05,17,02,22,3.20
2022,05,17,02,25,1.60
2022,05,17,02,26,3.20
2022,05,17,02,27,1.60
2022,05,17,02,28,1.60
2022,05,17,02,29,3.20
2022,05,17,02,30,1.60
2022,05,17,02,31,3.20
2022,05,17,02,32,4.80
2022,05,17,02,33,4.80
2022,05,17,02,34,4.80
2022,05,17,02,35,4.80
2022,05,17,02,36,1.60
2022,05,17,02,43,1.60
2022,05,17,02,44,1.60
2022,05,17,02,47,3.20
2022,05,17,02,48,3.20
2022,05,17,03,02,3.20
2022,05,17,03,03,3.20
2022,05,17,03,04,3.20
2022,05,17,03,05,3.20
2022,05,17,03,06,3.20
2022,05,17,03,08,1.60
2022,05,17,03,16,1.60
2022,05,17,03,17,3.20
2022,05,17,03,18,3.20
2022,05,17,03,19,4.80
2022,05,17,03,20,3.20
2022,05,17,03,21,1.60
2022,05,17,03,22,1.60
2022,05,17,03,23,4.80
2022,05,17,03,24,6.40
2022,05,17,03,25,4.80
2022,05,17,03,26,1.60
2022,05,17,03,32,1.60
2022,05,17,03,36,3.20
2022,05,17,03,37,3.20
2022,05,17,03,38,4.80
2022,05,17,03,39,3.20
2022,05,17,03,40,3.20
2022,05,17,03,41,3.20
2022,05,17,03,42,4.80
2022,05,17,03,43,4.80
2022,05,17,03,44,4.80
2022,05,17,03,45,4.80
2022,05,17,03,46,4.80
2022,05,17,03,47,4.80
2022,05,17,03,48,4.80
2022,05,17,03,49,4.80
2022,05,17,03,50,3.20
2022,05,17,03,51,3.20
2022,05,17,03,52,3.20
2022,05,17,03,53,3.20
2022,05,17,03,54,3.20
2022,05,17,03,55,3.20
2022,05,17,03,56,3.20
2022,05,17,03,57,3.20
2022,05,17,03,58,3.20
2022,05,17,04,00,3.20
2022,05,17,04,01,1.60
2022,05,17,04,02,3.20
2022,05,17,04,03,3.20
2022,05,17,04,04,3.20
2022,05,17,04,05,3.20
2022,05,17,04,06,1.60
2022,05,17,04,11,1.60
2022,05,17,04,12,3.20
2022,05,17,04,15,1.60
2022,05,17,04,18,1.60
2022,05,17,04,19,3.20
2022,05,17,04,21,1.60
2022,05,17,04,28,3.20
2022,05,17,04,29,3.20
2022,05,17,04,30,3.20
2022,05,17,04,31,3.20
2022,05,17,04,32,1.60
2022,05,17,04,33,1.60
2022,05,17,04,41,1.60
2022,05,17,04,42,3.20
2022,05,17,04,43,1.60
2022,05,17,04,44,3.20
2022,05,17,04,45,3.20
2022,05,17,04,46,3.20
2022,05,17,04,47,4.80
2022,05,17,04,48,4.80
2022,05,17,04,49,4.80
2022,05,17,04,50,4.80
2022,05,17,04,51,4.80
2022,05,17,04,52,4.80
2022,05,17,04,53,4.80
2022,05,17,04,54,1.60
2022,05,17,04,55,3.20
2022,05,17,04,56,4.80
2022,05,17,04,57,4.80
2022,05,17,04,58,4.80
2022,05,17,04,59,4.80
2022,05,17,05,00,3.20
2022,05,17,05,01,1.60
2022,05,17,05,03,3.20
2022,05,17,05,04,4.80
2022,05,17,05,05,1.60
2022,05,17,05,06,3.20
2022,05,17,05,07,3.20
2022,05,17,05,08,3.20
2022,05,17,05,09,3.20
2022,05,17,05,10,3.20
2022,05,17,05,11,1.60
2022,05,17,05,12,1.60
2022,05,17,05,13,1.60
2022,05,17,05,14,1.60
2022,05,17,05,15,1.60
2022,05,17,05,16,1.60
2022,05,17,05,22,1.60
2022,05,17,05,23,1.60
2022,05,17,05,24,1.60
2022,05,17,05,26,1.60
2022,05,17,05,27,4.80
2022,05,17,05,28,3.20
2022,05,17,05,29,3.20
2022,05,17,05,30,4.80
2022,05,17,05,31,4.80
2022,05,17,05,32,4.80
2022,05,17,05,33,4.80
2022,05,17,05,34,1.60
2022,05,17,05,35,3.20
2022,05,17,05,36,4.80
2022,05,17,05,37,3.20
2022,05,17,05,38,4.80
2022,05,17,05,39,3.20
2022,05,17,05,40,3.20
2022,05,17,05,41,3.20
2022,05,17,05,42,4.80
2022,05,17,05,43,4.80
2022,05,17,05,44,1.60
2022,05,17,05,45,3.20
2022,05,17,05,46,3.20
2022,05,17,05,47,3.20
2022,05,17,05,48,3.20
2022,05,17,05,49,3.20
2022,05,17,05,50,1.60
2022,05,17,05,51,3.20
2022,05,17,05,52,3.20
2022,05,17,05,53,1.60
2022,05,17,05,54,1.60
2022,05,17,05,55,3.20
2022,05,17,05,56,4.80
2022,05,17,05,57,3.20
2022,05,17,05,58,1.60
2022,05,17,06,00,6.40
2022,05,17,06,01,6.40
2022,05,17,06,02,6.40
2022,05,17,06,03,4.80
2022,05,17,06,04,4.80
2022,05,17,06,05,3.20
2022,05,17,06,06,1.60
2022,05,17,06,07,1.60
2022,05,17,06,08,1.60
2022,05,17,06,25,1.60
2022,05,17,06,31,1.60
2022,05,17,06,38,1.60
2022,05,17,06,40,1.60
2022,05,17,06,41,1.60
2022,05,17,06,42,3.20
2022,05,17,06,43,3.20
2022,05,17,06,44,3.20
2022,05,17,06,45,1.60
2022,05,17,06,46,3.20
2022,05,17,06,47,3.20
2022,05,17,06,48,4.80
2022,05,17,06,49,3.20
2022,05,17,06,50,3.20
2022,05,17,06,51,1.60
2022,05,17,06,52,1.60
2022,05,17,06,53,3.20
2022,05,17,06,54,3.20
2022,05,17,06,55,1.60
2022,05,17,06,56,3.20
2022,05,17,06,57,3.20
2022,05,17,06,58,3.20
2022,05,17,06,59,3.20
2022,05,17,07,00,3.20
2022,05,17,07,01,4.80
2022,05,17,07,02,3.20
2022,05,17,07,03,1.60
2022,05,17,07,05,3.20
2022,05,17,07,06,6.40
2022,05,17,07,07,6.40
2022,05,17,07,08,4.80
2022,05,17,07,09,4.80
2022,05,17,07,10,9.60
2022,05,17,07,11,8.10
2022,05,17,07,12,3.20
2022,05,17,07,13,6.40
2022,05,17,07,14,4.80
2022,05,17,07,15,3.20
2022,05,17,07,16,3.20
2022,05,17,07,17,4.80
2022,05,17,07,18,6.40
2022,05,17,07,19,8.10
2022,05,17,07,20,6.40
2022,05,17,07,21,8.10
2022,05,17,07,22,3.20
2022,05,17,07,23,6.40
2022,05,17,07,24,8.10
2022,05,17,07,25,8.10
2022,05,17,07,26,8.10
2022,05,17,07,27,6.40
2022,05,17,07,28,4.80
2022,05,17,07,29,4.80
2022,05,17,07,30,6.40
2022,05,17,07,31,6.40
2022,05,17,07,32,6.40
2022,05,17,07,33,4.80
2022,05,17,07,34,4.80
2022,05,17,07,35,4.80
2022,05,17,07,36,6.40
2022,05,17,07,37,8.10
2022,05,17,07,38,8.10
2022,05,17,07,39,8.10
2022,05,17,07,40,6.40
2022,05,17,07,41,6.40
2022,05,17,07,42,6.40
2022,05,17,07,43,4.80
2022,05,17,07,44,6.40
2022,05,17,07,45,4.80
2022,05,17,07,46,6.40
2022,05,17,07,47,6.40
2022,05,17,07,48,6.40
2022,05,17,07,49,3.20
2022,05,17,07,50,4.80
2022,05,17,07,51,4.80
2022,05,17,07,52,6.40
2022,05,17,07,53,8.10
2022,05,17,07,54,6.40
2022,05,17,07,55,6.40
2022,05,17,07,56,4.80
2022,05,17,07,57,4.80
2022,05,17,07,58,4.80
2022,05,17,07,59,4.80
2022,05,17,08,00,3.20
2022,05,17,08,01,6.40
2022,05,17,08,02,8.10
2022,05,17,08,03,6.40
2022,05,17,08,04,8.10
2022,05,17,08,05,8.10
2022,05,17,08,06,6.40
2022,05,17,08,07,6.40
2022,05,17,08,08,6.40
2022,05,17,08,09,8.10
2022,05,17,08,10,9.60
2022,05,17,08,11,11.30
2022,05,17,08,12,14.50
2022,05,17,08,13,12.90
2022,05,17,08,14,9.60
2022,05,17,08,15,9.60
2022,05,17,08,16,11.30
2022,05,17,08,17,16.10
2022,05,17,08,18,11.30
2022,05,17,08,19,11.30
2022,05,17,08,20,11.30
2022,05,17,08,21,9.60
2022,05,17,08,22,14.50
2022,05,17,08,23,12.90
2022,05,17,08,24,16.10
2022,05,17,08,25,16.10
2022,05,17,08,26,14.50
2022,05,17,08,27,16.10
2022,05,17,08,28,14.50
2022,05,17,08,29,11.30
2022,05,17,08,30,17.70
2022,05,17,08,31,17.70
2022,05,17,08,32,8.10
2022,05,17,08,33,6.40
2022,05,17,08,34,12.90
2022,05,17,08,35,17.70
2022,05,17,08,36,14.50
2022,05,17,08,37,8.10
2022,05,17,08,38,9.60
2022,05,17,08,39,11.30
2022,05,17,08,40,12.90
2022,05,17,08,41,9.60
2022,05,17,08,42,9.60
2022,05,17,08,43,9.60
2022,05,17,08,44,16.10
2022,05,17,08,45,12.90
2022,05,17,08,46,12.90
2022,05,17,08,47,17.70
2022,05,17,08,48,19.30
2022,05,17,08,49,11.30
2022,05,17,08,50,14.50
2022,05,17,08,51,16.10
2022,05,17,08,52,11.30
2022,05,17,08,53,11.30
2022,05,17,08,54,11.30
2022,05,17,08,55,12.90
2022,05,17,08,56,8.10
2022,05,17,08,57,8.10
2022,05,17,08,58,6.40
2022,05,17,08,59,9.60
2022,05,17,09,00,9.60
2022,05,17,09,01,9.60
2022,05,17,09,02,8.10
2022,05,17,09,03,9.60
2022,05,17,09,04,6.40
2022,05,17,09,05,6.40
2022,05,17,09,06,4.80
2022,05,17,09,07,9.60
2022,05,17,09,08,6.40
2022,05,17,09,09,3.20
2022,05,17,09,10,17.70
2022,05,17,09,11,16.10
2022,05,17,09,12,9.60
2022,05,17,09,13,11.30
2022,05,17,09,14,9.60
2022,05,17,09,15,14.50
2022,05,17,09,16,8.10
2022,05,17,09,17,14.50
2022,05,17,09,18,9.60
2022,05,17,09,19,4.80
2022,05,17,09,20,14.50
2022,05,17,09,21,9.60
2022,05,17,09,22,11.30
2022,05,17,09,23,9.60
2022,05,17,09,24,6.40
2022,05,17,09,25,11.30
2022,05,17,09,26,11.30
2022,05,17,09,27,14.50
2022,05,17,09,28,9.60
2022,05,17,09,29,8.10
2022,05,17,09,30,6.40
2022,05,17,09,31,8.10
2022,05,17,09,32,9.60
2022,05,17,09,33,9.60
2022,05,17,09,34,19.30
2022,05,17,09,35,11.30
2022,05,17,09,36,12.90
2022,05,17,09,37,8.10
2022,05,17,09,38,8.10
2022,05,17,09,39,9.60
2022,05,17,09,40,16.10
2022,05,17,09,41,6.40
2022,05,17,09,42,8.10
2022,05,17,09,43,11.30
2022,05,17,09,44,9.60
2022,05,17,09,45,8.10
2022,05,17,09,46,9.60
2022,05,17,09,47,4.80
2022,05,17,09,48,8.10
2022,05,17,09,49,9.60
2022,05,17,09,50,14.50
2022,05,17,09,51,9.60
2022,05,17,09,52,6.40
2022,05,17,09,53,6.40
2022,05,17,09,54,9.60
2022,05,17,09,55,8.10
2022,05,17,09,56,9.60
2022,05,17,09,57,9.60
2022,05,17,09,58,8.10
2022,05,17,09,59,16.10
2022,05,17,10,00,12.90
2022,05,17,10,01,8.10
2022,05,17,10,02,8.10
2022,05,17,10,03,8.10
2022,05,17,10,04,12.90
2022,05,17,10,05,14.50
2022,05,17,10,06,9.60
2022,05,17,10,07,8.10
2022,05,17,10,08,8.10
2022,05,17,10,09,9.60
2022,05,17,10,10,9.60
2022,05,17,10,11,3.20
2022,05,17,10,12,9.60
2022,05,17,10,13,8.10
2022,05,17,10,14,8.10
2022,05,17,10,15,4.80
2022,05,17,10,16,8.10
2022,05,17,10,17,11.30
2022,05,17,10,18,9.60
2022,05,17,10,19,11.30
2022,05,17,10,20,11.30
2022,05,17,10,21,11.30
2022,05,17,10,22,8.10
2022,05,17,10,23,4.80
2022,05,17,10,24,8.10
2022,05,17,10,25,11.30
2022,05,17,10,26,9.60
2022,05,17,10,27,9.60
2022,05,17,10,28,11.30
2022,05,17,10,29,17.70
2022,05,17,10,30,19.30
2022,05,17,10,31,8.10
2022,05,17,10,32,8.10
2022,05,17,10,33,8.10
2022,05,17,10,34,16.10
2022,05,17,10,35,14.50
2022,05,17,10,36,16.10
2022,05,17,10,37,14.50
2022,05,17,10,38,17.70
2022,05,17,10,39,19.30
2022,05,17,10,40,16.10
2022,05,17,10,41,16.10
2022,05,17,10,42,17.70
2022,05,17,10,43,9.60
2022,05,17,10,44,9.60
2022,05,17,10,45,8.10
2022,05,17,10,46,11.30
2022,05,17,10,47,11.30
2022,05,17,10,48,16.10
2022,05,17,10,49,17.70
2022,05,17,10,50,9.60
2022,05,17,10,51,9.60
2022,05,17,10,52,11.30
2022,05,17,10,53,9.60
2022,05,17,10,54,17.70
2022,05,17,10,55,9.60
2022,05,17,10,56,4.80
2022,05,17,10,57,6.40
2022,05,17,10,58,11.30
2022,05,17,10,59,8.10
2022,05,17,11,00,17.70
2022,05,17,11,01,8.10
2022,05,17,11,02,6.40
2022,05,17,11,03,8.10
2022,05,17,11,04,11.30
2022,05,17,11,05,8.10
2022,05,17,11,06,8.10
2022,05,17,11,07,16.10
2022,05,17,11,08,19.30
2022,05,17,11,09,14.50
2022,05,17,11,10,6.40
2022,05,17,11,11,14.50
2022,05,17,11,12,17.70
2022,05,17,11,13,16.10
2022,05,17,11,14,16.10
2022,05,17,11,15,16.10
2022,05,17,11,16,11.30
2022,05,17,11,17,17.70
2022,05,17,11,18,11.30
2022,05,17,11,19,11.30
2022,05,17,11,20,11.30
2022,05,17,11,21,11.30
2022,05,17,11,22,14.50
2022,05,17,11,23,6.40
2022,05,17,11,24,9.60
2022,05,17,11,25,9.60
2022,05,17,11,26,8.10
2022,05,17,11,27,9.60
2022,05,17,11,28,16.10
2022,05,17,11,29,8.10
2022,05,17,11,30,6.40
2022,05,17,11,31,9.60
2022,05,17,11,32,14.50
2022,05,17,11,33,9.60
2022,05,17,11,34,19.30
2022,05,17,11,35,14.50
2022,05,17,11,36,12.90
2022,05,17,11,37,12.90
2022,05,17,11,38,9.60
2022,05,17,11,39,19.30
2022,05,17,11,40,16.10
2022,05,17,11,41,17.70
2022,05,17,11,42,16.10
2022,05,17,11,43,9.60
2022,05,17,11,44,8.10
2022,05,17,11,45,16.10
2022,05,17,11,46,9.60
2022,05,17,11,47,9.60
2022,05,17,11,48,17.70
2022,05,17,11,49,14.50
2022,05,17,11,50,20.90
2022,05,17,11,51,17.70
2022,05,17,11,52,11.30
2022,05,17,11,53,17.70
2022,05,17,11,54,9.60
2022,05,17,11,55,16.10
2022,05,17,11,56,22.50
2022,05,17,11,57,16.10
2022,05,17,11,58,16.10
2022,05,17,11,59,9.60
2022,05,17,12,00,17.70
2022,05,17,12,01,16.10
2022,05,17,12,02,19.30
2022,05,17,12,03,11.30
2022,05,17,12,04,14.50
2022,05,17,12,05,12.90
2022,05,17,12,06,16.10
2022,05,17,12,07,16.10
2022,05,17,12,08,24.20
2022,05,17,12,09,16.10
2022,05,17,12,10,14.50
2022,05,17,12,11,9.60
2022,05,17,12,12,14.50
2022,05,17,12,13,16.10
2022,05,17,12,14,11.30
2022,05,17,12,15,9.60
2022,05,17,12,16,11.30
2022,05,17,12,17,8.10
2022,05,17,12,18,9.60
2022,05,17,12,19,14.50
2022,05,17,12,20,9.60
2022,05,17,12,21,14.50
2022,05,17,12,22,17.70
2022,05,17,12,23,16.10
2022,05,17,12,24,16.10
2022,05,17,12,25,17.70
2022,05,17,12,26,11.30
2022,05,17,12,27,11.30
2022,05,17,12,28,11.30
2022,05,17,12,29,16.10
2022,05,17,12,30,16.10
2022,05,17,12,31,11.30
2022,05,17,12,32,12.90
2022,05,17,12,33,8.10
2022,05,17,12,34,9.60
2022,05,17,12,35,8.10
2022,05,17,12,36,11.30
2022,05,17,12,37,8.10
2022,05,17,12,38,9.60
2022,05,17,12,39,11.30
2022,05,17,12,40,11.30
2022,05,17,12,41,11.30
2022,05,17,12,42,14.50
2022,05,17,12,43,16.10
2022,05,17,12,44,8.10
2022,05,17,12,45,8.10
2022,05,17,12,46,8.10
2022,05,17,12,47,8.10
2022,05,17,12,48,8.10
2022,05,17,12,49,9.60
2022,05,17,12,50,14.50
2022,05,17,12,51,9.60
2022,05,17,12,52,11.30
2022,05,17,12,53,11.30
2022,05,17,12,54,11.30
2022,05,17,12,55,11.30
2022,05,17,12,56,17.70
2022,05,17,12,57,16.10
2022,05,17,12,58,19.30
2022,05,17,12,59,16.10
2022,05,17,13,00,11.30
2022,05,17,13,01,6.40
2022,05,17,13,02,9.60
2022,05,17,13,03,8.10
2022,05,17,13,04,9.60
2022,05,17,13,05,8.10
2022,05,17,13,06,9.60
2022,05,17,13,07,12.90
2022,05,17,13,08,17.70
2022,05,17,13,09,11.30
2022,05,17,13,10,11.30
2022,05,17,13,11,9.60
2022,05,17,13,12,11.30
2022,05,17,13,13,17.70
2022,05,17,13,14,12.90
2022,05,17,13,15,8.10
2022,05,17,13,16,11.30
2022,05,17,13,17,9.60
2022,05,17,13,18,9.60
2022,05,17,13,19,11.30
2022,05,17,13,20,9.60
2022,05,17,13,21,16.10
2022,05,17,13,22,17.70
2022,05,17,13,23,9.60
2022,05,17,13,24,8.10
2022,05,17,13,25,6.40
2022,05,17,13,26,4.80
2022,05,17,13,27,8.10
2022,05,17,13,28,11.30
2022,05,17,13,29,17.70
2022,05,17,13,30,11.30
2022,05,17,13,31,11.30
2022,05,17,13,32,12.90
2022,05,17,13,33,11.30
2022,05,17,13,34,16.10
2022,05,17,13,35,11.30
2022,05,17,13,36,17.70
2022,05,17,13,37,12.90
2022,05,17,13,38,12.90
2022,05,17,13,39,17.70
2022,05,17,13,40,17.70
2022,05,17,13,41,17.70
2022,05,17,13,42,24.20
2022,05,17,13,43,12.90
2022,05,17,13,44,16.10
2022,05,17,13,45,14.50
2022,05,17,13,46,20.90
2022,05,17,13,47,19.30
2022,05,17,13,48,14.50
2022,05,17,13,49,16.10
2022,05,17,13,50,22.50
2022,05,17,13,51,16.10
2022,05,17,13,52,20.90
2022,05,17,13,53,22.50
2022,05,17,13,54,8.10
2022,05,17,13,55,9.60
2022,05,17,13,56,9.60
2022,05,17,13,57,16.10
2022,05,17,13,58,17.70
2022,05,17,13,59,14.50
2022,05,17,14,00,9.60
2022,05,17,14,01,12.90
2022,05,17,14,02,17.70
2022,05,17,14,03,14.50
2022,05,17,14,04,22.50
2022,05,17,14,05,17.70
2022,05,17,14,06,16.10
2022,05,17,14,07,14.50
2022,05,17,14,08,12.90
2022,05,17,14,09,11.30
2022,05,17,14,10,9.60
2022,05,17,14,11,11.30
2022,05,17,14,12,12.90
2022,05,17,14,13,16.10
2022,05,17,14,14,16.10
2022,05,17,14,15,16.10
2022,05,17,14,16,12.90
2022,05,17,14,17,11.30
2022,05,17,14,18,11.30
2022,05,17,14,19,16.10
2022,05,17,14,20,19.30
2022,05,17,14,21,19.30
2022,05,17,14,22,17.70
2022,05,17,14,23,16.10
2022,05,17,14,24,14.50
2022,05,17,14,25,16.10
2022,05,17,14,26,11.30
2022,05,17,14,27,14.50
2022,05,17,14,28,16.10
2022,05,17,14,29,16.10
2022,05,17,14,30,11.30
2022,05,17,14,31,14.50
2022,05,17,14,32,12.90
2022,05,17,14,33,8.10
2022,05,17,14,34,11.30
2022,05,17,14,35,8.10
2022,05,17,14,36,8.10
2022,05,17,14,37,8.10
2022,05,17,14,38,9.60
2022,05,17,14,39,16.10
2022,05,17,14,40,9.60
2022,05,17,14,41,8.10
2022,05,17,14,42,8.10
2022,05,17,14,43,9.60
2022,05,17,14,44,9.60
2022,05,17,14,45,14.50
2022,05,17,14,46,9.60
2022,05,17,14,47,11.30
2022,05,17,14,48,11.30
2022,05,17,14,49,11.30
2022,05,17,14,50,9.60
2022,05,17,14,51,4.80
2022,05,17,14,52,8.10
2022,05,17,14,53,12.90
2022,05,17,14,54,11.30
2022,05,17,14,55,6.40
2022,05,17,14,56,14.50
2022,05,17,14,57,14.50
2022,05,17,14,58,11.30
2022,05,17,14,59,9.60
2022,05,17,15,00,8.10
2022,05,17,15,01,8.10
2022,05,17,15,02,6.40
2022,05,17,15,03,8.10
2022,05,17,15,04,3.20
2022,05,17,15,05,9.60
2022,05,17,15,06,12.90
2022,05,17,15,07,4.80
2022,05,17,15,08,4.80
2022,05,17,15,09,6.40
2022,05,17,15,10,9.60
2022,05,17,15,11,16.10
2022,05,17,15,12,6.40
2022,05,17,15,13,9.60
2022,05,17,15,14,11.30
2022,05,17,15,15,14.50
2022,05,17,15,16,14.50
2022,05,17,15,17,9.60
2022,05,17,15,18,11.30
2022,05,17,15,19,9.60
2022,05,17,15,20,6.40
2022,05,17,15,21,8.10
2022,05,17,15,22,11.30
2022,05,17,15,23,9.60
2022,05,17,15,24,8.10
2022,05,17,15,25,3.20
2022,05,17,15,26,11.30
2022,05,17,15,27,11.30
2022,05,17,15,28,9.60
2022,05,17,15,29,6.40
2022,05,17,15,30,9.60
2022,05,17,15,31,8.10
2022,05,17,15,32,11.30
2022,05,17,15,33,12.90
2022,05,17,15,34,9.60
2022,05,17,15,35,14.50
2022,05,17,15,36,14.50
2022,05,17,15,37,11.30
2022,05,17,15,38,9.60
2022,05,17,15,39,6.40
2022,05,17,15,40,8.10
2022,05,17,15,41,9.60
2022,05,17,15,42,11.30
2022,05,17,15,43,14.50
2022,05,17,15,44,8.10
2022,05,17,15,45,9.60
2022,05,17,15,46,14.50
2022,05,17,15,47,14.50
2022,05,17,15,48,11.30
2022,05,17,15,49,12.90
2022,05,17,15,50,11.30
2022,05,17,15,51,8.10
2022,05,17,15,52,8.10
2022,05,17,15,53,8.10
2022,05,17,15,54,11.30
2022,05,17,15,55,9.60
2022,05,17,15,56,9.60
2022,05,17,15,57,9.60
2022,05,17,15,58,9.60
2022,05,17,15,59,6.40
2022,05,17,16,00,9.60
2022,05,17,16,01,6.40
2022,05,17,16,02,11.30
2022,05,17,16,03,9.60
2022,05,17,16,04,9.60
2022,05,17,16,05,4.80
2022,05,17,16,06,4.80
2022,05,17,16,07,6.40
2022,05,17,16,08,6.40
2022,05,17,16,09,8.10
2022,05,17,16,10,8.10
2022,05,17,16,11,11.30
2022,05,17,16,12,8.10
2022,05,17,16,13,6.40
2022,05,17,16,14,8.10
2022,05,17,16,15,8.10
2022,05,17,16,16,11.30
2022,05,17,16,17,4.80
2022,05,17,16,18,12.90
2022,05,17,16,19,8.10
2022,05,17,16,20,11.30
2022,05,17,16,21,16.10
2022,05,17,16,22,22.50
2022,05,17,16,23,20.90
2022,05,17,16,24,11.30
2022,05,17,16,25,6.40
2022,05,17,16,26,3.20
2022,05,17,16,27,4.80
2022,05,17,16,28,4.80
2022,05,17,16,29,4.80
2022,05,17,16,30,3.20
2022,05,17,16,31,3.20
2022,05,17,16,32,3.20
2022,05,17,16,33,4.80
2022,05,17,16,34,6.40
2022,05,17,16,35,8.10
2022,05,17,16,36,6.40
2022,05,17,16,37,9.60
2022,05,17,16,38,4.80
2022,05,17,16,39,3.20
2022,05,17,16,40,4.80
2022,05,17,16,41,6.40
2022,05,17,16,42,6.40
2022,05,17,16,43,16.10
2022,05,17,16,44,9.60
2022,05,17,16,45,8.10
2022,05,17,16,46,4.80
2022,05,17,16,47,1.60
2022,05,17,16,48,6.40
2022,05,17,16,49,6.40
2022,05,17,16,50,4.80
2022,05,17,16,51,6.40
2022,05,17,16,52,1.60
2022,05,17,16,53,3.20
2022,05,17,16,54,1.60
2022,05,17,16,55,3.20
2022,05,17,16,56,8.10
2022,05,17,16,57,3.20
2022,05,17,16,58,3.20
2022,05,17,16,59,9.60
2022,05,17,17,00,6.40
2022,05,17,17,01,6.40
2022,05,17,17,02,9.60
2022,05,17,17,03,8.10
2022,05,17,17,04,9.60
2022,05,17,17,05,8.10
2022,05,17,17,06,6.40
2022,05,17,17,07,11.30
2022,05,17,17,08,8.10
2022,05,17,17,09,8.10
2022,05,17,17,10,9.60
2022,05,17,17,11,9.60
2022,05,17,17,12,4.80
2022,05,17,17,13,6.40
2022,05,17,17,14,9.60
2022,05,17,17,15,11.30
2022,05,17,17,16,9.60
2022,05,17,17,17,8.10
2022,05,17,17,18,6.40
2022,05,17,17,19,8.10
2022,05,17,17,20,8.10
2022,05,17,17,21,8.10
2022,05,17,17,22,6.40
2022,05,17,17,23,8.10
2022,05,17,17,24,4.80
2022,05,17,17,25,4.80
2022,05,17,17,26,6.40
2022,05,17,17,27,6.40
2022,05,17,17,28,3.20
2022,05,17,17,29,4.80
2022,05,17,17,30,3.20
2022,05,17,17,31,3.20
2022,05,17,17,32,3.20
2022,05,17,17,33,6.40
2022,05,17,17,34,6.40
2022,05,17,17,35,8.10
2022,05,17,17,36,6.40
2022,05,17,17,37,8.10
2022,05,17,17,38,4.80
2022,05,17,17,39,9.60
2022,05,17,17,40,9.60
2022,05,17,17,41,8.10
2022,05,17,17,42,6.40
2022,05,17,17,43,3.20
2022,05,17,17,44,3.20
2022,05,17,17,45,4.80
2022,05,17,17,46,8.10
2022,05,17,17,47,6.40
2022,05,17,17,48,4.80
2022,05,17,17,49,1.60
2022,05,17,17,50,3.20
2022,05,17,17,51,3.20
2022,05,17,17,52,3.20
2022,05,17,17,53,1.60
2022,05,17,17,54,3.20
2022,05,17,17,55,3.20
2022,05,17,17,56,1.60
2022,05,17,17,57,1.60
2022,05,17,17,59,1.60
2022,05,17,18,00,4.80
2022,05,17,18,01,1.60
2022,05,17,18,02,4.80
2022,05,17,18,03,3.20
2022,05,17,18,04,4.80
2022,05,17,18,05,3.20
2022,05,17,18,06,3.20
2022,05,17,18,07,1.60
2022,05,17,18,08,3.20
2022,05,17,18,09,1.60
2022,05,17,18,10,3.20
2022,05,17,18,11,3.20
2022,05,17,18,12,3.20
2022,05,17,18,13,3.20
2022,05,17,18,14,1.60
2022,05,17,18,15,3.20
2022,05,17,18,16,3.20
2022,05,17,18,17,1.60
2022,05,17,18,18,1.60
2022,05,17,18,19,1.60
2022,05,17,18,21,3.20
2022,05,17,18,22,1.60
2022,05,17,18,23,1.60
2022,05,17,18,24,3.20
2022,05,17,18,25,3.20
2022,05,17,18,26,1.60
2022,05,17,18,27,3.20
2022,05,17,18,28,3.20
2022,05,17,18,29,4.80
2022,05,17,18,30,4.80
2022,05,17,18,31,1.60
2022,05,17,18,32,3.20
2022,05,17,18,33,8.10
2022,05,17,18,34,4.80
2022,05,17,18,35,4.80
2022,05,17,18,36,4.80
2022,05,17,18,37,3.20
2022,05,17,18,38,1.60
2022,05,17,18,39,1.60
2022,05,17,18,40,3.20
2022,05,17,18,41,6.40
2022,05,17,18,42,8.10
2022,05,17,18,43,4.80
2022,05,17,18,44,3.20
2022,05,17,18,45,3.20
2022,05,17,18,47,1.60
2022,05,17,18,49,1.60
2022,05,17,18,50,3.20
2022,05,17,18,51,3.20
2022,05,17,18,52,3.20
2022,05,17,18,53,1.60
2022,05,17,18,57,3.20
2022,05,17,18,58,3.20
2022,05,17,18,59,1.60
2022,05,17,19,00,3.20
2022,05,17,19,02,1.60
2022,05,17,19,03,4.80
2022,05,17,19,04,3.20
2022,05,17,19,05,1.60
2022,05,17,19,09,3.20
2022,05,17,19,12,3.20
2022,05,17,19,13,3.20
2022,05,17,19,14,4.80
2022,05,17,19,15,4.80
2022,05,17,19,16,4.80
2022,05,17,19,17,3.20
2022,05,17,19,18,4.80
2022,05,17,19,19,4.80
2022,05,17,19,20,3.20
2022,05,17,19,21,3.20
2022,05,17,19,22,3.20
2022,05,17,19,23,3.20
2022,05,17,19,25,3.20
2022,05,17,19,26,4.80
2022,05,17,19,27,1.60
2022,05,17,19,28,1.60
2022,05,17,19,29,1.60
2022,05,17,19,31,3.20
2022,05,17,19,32,3.20
2022,05,17,19,33,3.20
2022,05,17,19,34,4.80
2022,05,17,19,35,4.80
2022,05,17,19,36,6.40
2022,05,17,19,37,4.80
2022,05,17,19,38,4.80
2022,05,17,19,39,4.80
2022,05,17,19,40,3.20
2022,05,17,19,41,4.80
2022,05,17,19,42,3.20
2022,05,17,19,43,3.20
2022,05,17,19,44,4.80
2022,05,17,19,45,4.80
2022,05,17,19,46,4.80
2022,05,17,19,47,4.80
2022,05,17,19,48,6.40
2022,05,17,19,49,4.80
2022,05,17,19,50,3.20
2022,05,17,19,51,4.80
2022,05,17,19,52,4.80
2022,05,17,19,53,3.20
2022,05,17,19,54,3.20
2022,05,17,19,55,3.20
2022,05,17,19,56,4.80
2022,05,17,19,57,6.40
2022,05,17,19,58,4.80
2022,05,17,19,59,4.80
2022,05,17,20,00,4.80
2022,05,17,20,01,6.40
2022,05,17,20,02,4.80
2022,05,17,20,03,6.40
2022,05,17,20,04,4.80
2022,05,17,20,05,4.80
2022,05,17,20,06,6.40
2022,05,17,20,07,4.80
2022,05,17,20,08,4.80
2022,05,17,20,09,4.80
2022,05,17,20,10,3.20
2022,05,17,20,11,6.40
2022,05,17,20,12,4.80
2022,05,17,20,13,6.40
2022,05,17,20,14,4.80
2022,05,17,20,15,3.20
2022,05,17,20,16,6.40
2022,05,17,20,17,4.80
2022,05,17,20,18,3.20
2022,05,17,20,19,3.20
2022,05,17,20,20,3.20
2022,05,17,20,21,3.20
2022,05,17,20,22,3.20
2022,05,17,20,23,3.20
2022,05,17,20,24,3.20